Regional Weather Roundup
Issued by NWS

Home | Current Version | Previous Version | Graphics & Text | Print | Product List | Glossary On
Versions: 1 2 3 4 5 6 7 8 9 10 11 12 13 14 15 16 17 18 19 20 21 22 23 24 25 26 27 28 29 30 31 32 33 34 35 36 37 38 39 40 41 42 43 44 45 46 47 48 49 50
000
ASUS43 KDMX 291007
RWRIA

WEATHER ROUNDUP FOR IOWA
NATIONAL WEATHER SERVICE DES MOINES IA
500 AM CDT MON JUN 29 2015

NOTE: "FAIR" INDICATES FEW OR NO CLOUDS BELOW 12,000 FEET WITH NO
SIGNIFICANT WEATHER AND/OR OBSTRUCTIONS TO VISIBILITY.

* - THESE STATIONS ARE NOT NWS STATIONS...THUS NOT UNDER NWS
QUALITY CONTROL.  THEY ALSO DO NOT REPORT WEATHER SUCH
AS PRECIPITATION OR FOG.

IAZ001>003-012>014-020>022-031>034-043>046-291100-
   NORTHWEST IOWA

CITY           SKY/WX    TMP DP  RH WIND       PRES   REMARKS
CARROLL *      CLOUDY    63  61  94 W8        29.88S
CHEROKEE *     CLEAR     59  59 100 CALM      29.89S
DENISON *      MOCLDY    63  59  88 CALM      29.88S
LE MARS *      CLEAR     61  59  94 CALM      29.91S
ORANGE CITY *  CLEAR     63  59  88 N6        29.91R
SHELDON *      CLEAR     59  59 100 NW5       29.89S
SIOUX CITY     CLEAR     63  58  83 NW7       29.91R
SPENCER        CLEAR     60  57  89 NW5       29.88S
STORM LAKE *   CLEAR     64  59  82 NW9       29.90S
$$

IAZ055>058-069>071-079>083-090>094-291100-
   SOUTHWEST IOWA

CITY           SKY/WX    TMP DP  RH WIND       PRES   REMARKS
ATLANTIC *     MOCLDY    61  59  94 CALM      29.89F
AUDUBON *      CLEAR     61  57  88 CALM      29.90S
CLARINDA *     CLEAR     61  61 100 CALM      29.91S
COUNCIL BLFS * PTCLDY    64  59  82 W6        29.92S
CRESTON *      CLEAR     63  61  94 NW8       29.88S
HARLAN  *      PTCLDY    63  63 100 CALM      29.94R
LAMONI         CLEAR     65  62  90 W6        29.87R
RED OAK *      CLEAR     64  61  88 CALM      29.90S
SHENANDOAH *     N/A     64  61  88 SW5       29.91S FOG
$$

IAZ047>049-059>061-072>074-084-291100-
   CENTRAL IOWA

CITY           SKY/WX    TMP DP  RH WIND       PRES   REMARKS
AMES           CLEAR     61  59  93 SW3       29.84S
ANKENY *       CLEAR     63  63 100 W3        29.84S
CHARITON *     PTCLDY    64  63  94 W7        29.85S
DES MOINES     CLEAR     66  62  87 W6        29.84S
GRINNELL*      FOG       63  63 100 W3        29.84S VSB 1/4
KNOXVILLE *    CLEAR     64  63  94 W7        29.83R
MARSHALLTOWN   CLEAR     60  60 100 NW5       29.83R FOG
PELLA *        CLEAR     63  63 100 NW3       29.84S FOG
PERRY *          N/A     64  63  94 W7        29.86S
$$

IAZ004>006-015-016-023>025-035-036-291100-
   NORTH CENTRAL IOWA

CITY           SKY/WX    TMP DP  RH WIND       PRES   REMARKS
ALGONA *       CLEAR     64  61  88 NW6       29.86S
CLARION *      CLEAR     63  61  94 NW3       29.85S
ESTHERVILLE    CLEAR     61  59  93 NW8       29.87S
FORT DODGE *   CLEAR     63  57  82 NW3       29.86F
MASON CITY     CLEAR     61  60  97 W6        29.85S
FOREST CITY *  CLEAR     61  61 100 CALM      29.84S
IOWA FALLS *     N/A     61  59  94 CALM      29.85S
$$

IAZ007>011-017>019-026>030-037>042-050>054-066-291100-
   NORTHEAST IOWA

CITY           SKY/WX    TMP DP  RH WIND       PRES   REMARKS
CEDAR RAPIDS   FOG       60  60 100 NW5       29.81S VSB 1/4
CHARLES CITY * FOG       59  59 100 NW3       29.84R VSB 1/4
CLINTON *      CLOUDY    61  57  88 N5        29.83S VSB 1/4
DECORAH *        N/A    N/A N/A N/A MISG        N/A
DUBUQUE        FOG       56  55  97 CALM      29.81F VSB 1/2
MONTICELLO *   FOG       59  59 100 CALM      29.82R VSB 0
OELWEIN *        N/A     63  63 100 CALM      29.83S
WATERLOO       FOG       62  62 100 CALM      29.82S VSB 1/4
$$

IAZ064-065-067-068-078-291100-
   EAST CENTRAL IOWA

CITY           SKY/WX    TMP DP  RH WIND       PRES   REMARKS
DAVENPORT      FOG       58  57  97 CALM      29.81R VSB 1/2
IOWA CITY      FOG       61  60  97 CALM      29.82S VSB 1/2
MT. PLEASANT * CLOUDY    66  64  94 NW5       29.81S FOG
MUSCATINE *    CLOUDY    64  63  94 NW6       29.81S FOG
QUAD CITIES    FOG       62  61  96 CALM      29.80R VSB 1/4
$$

IAZ062-063-075>077-085>089-095>099-291100-
   SOUTHEAST IOWA

CITY           SKY/WX    TMP DP  RH WIND       PRES   REMARKS
BURLINGTON     CLOUDY    64  64 100 N8        29.80R FOG
FAIRFIELD *    CLOUDY    66  64  94 NW6       29.82S FOG
FORT MADISON * FOG       64  64 100 NW7       29.81S VSB 1/2
KEOKUK *       FOG       64  64 100 NW9       29.80R VSB 1/4
OSKALOOSA *    FOG       64  64 100 CALM      29.84S VSB 3/4
OTTUMWA        FOG       65  65 100 W5        29.81S VSB 1/2
WASHINGTON *   FOG       63  63 100 NW7       29.83S VSB 0
$$

ABBREVIATIONS USED IN REMARKS
   TC - TEMPERATURES IN CELSIUS
  WCI - WIND CHILL INDEX
   HX - HEAT INDEX
  VSB - VISIBILITY
$$



USA.gov is the U.S. government's official web portal to all federal, state and local government web resources and services.